Location: Vlissingen
(51.4500°N, 3.5830°E)
Time: 14:02:22
(UTC+01:00)

N. Korean satellite - Pass Details

Date: 01 December 2021
Orbit: 447 x 490 km, 97.3° (Epoch: 27 January)

Event Time Altitude Azimuth Distance (km) Brightness Sun altitude
Rises 05:39:59 0° 20° (NNE) 2,482 10.4 -25.3°
Reaches altitude 10° 05:42:10 10° 29° (NNE) 1,597 9.5 -25.0°
Maximum altitude 05:45:20 36° 97° (E) 740 8.0 -24.5°
Drops below altitude 10° 05:48:28 10° 166° (SSE) 1,573 9.4 -24.0°
Sets 05:50:35 0° 175° (S) 2,438 10.3 -23.7°
